Tracking 20092 objects as of 14-Dec-2019
HD Live streaming from Space Station
objects crossing your sky now

USA 65

Track USA 65 now!
USA 65 is classified as:


NORAD ID: 20929
Int'l Code: 1990-095A
Perigee: 36,296.9 km
Apogee: 36,356.9 km
Inclination: 15.3 °
Period: 1,463.4 minutes
Semi major axis: 42697 km
RCS: Unknown
Launch date: November 13, 1990
Source: United States (US)
Launch site: AIR FORCE EASTERN TEST RANGE (AFETR)
aabbcc
Your satellite tracking list
Your tracking list is empty




NASA's NSSDC Master Catalog

Two Line Element Set (TLE):
1 20929U 90095A   19346.32977846 -.00000225  00000-0  00000+0 0  9993
2 20929  15.3244   2.3724 0007020   3.4079 356.6031  0.98399637  2058
Source of the keplerian elements: McCants